WET,Max TemperatureF,Mean TemperatureF,Min TemperatureF,Max Dew PointF,MeanDew PointF,Min DewpointF,Max Humidity, Mean Humidity, Min Humidity, Max Sea Level PressureIn, Mean Sea Level PressureIn, Min Sea Level PressureIn, Max VisibilityMiles, Mean VisibilityMiles, Min VisibilityMiles, Max Wind SpeedMPH, Mean Wind SpeedMPH, Max Gust SpeedMPH,PrecipitationIn, CloudCover, Events, WindDirDegrees
2012-12-1,52,45,38,32,28,23,75,53,23,29.98,29.82,29.74,12,7,6,32,24,46,0.00,2,,297
2012-12-2,53,42,32,28,17,7,65,36,8,30.27,30.10,29.98,12,8,6,12,5,,0.00,1,,274
2012-12-3,55,42,28,20,13,0,69,33,8,30.42,30.35,30.30,12,12,12,6,2,,0.00,,,270
2012-12-4,64,45,26,16,12,10,51,28,6,30.42,30.35,30.27,12,12,12,7,1,,0.00,,,287
2012-12-5,63,46,30,16,12,7,51,26,5,30.30,30.24,30.15,12,12,12,5,2,,0.00,,,255
2012-12-6,65,48,32,16,13,10,48,23,6,30.30,30.22,30.15,12,12,12,4,2,,0.00,,,-1
2012-12-7,68,50,33,39,18,12,51,27,6,30.21,30.16,30.09,12,9,6,17,3,,0.00,2,,307
2012-12-8,69,55,41,41,28,19,66,35,11,30.21,30.15,30.09,12,12,12,15,4,,0.00,,,76
2012-12-9,64,50,37,25,22,19,52,31,13,30.33,30.26,30.21,12,12,12,5,1,,0.00,,,270
2012-12-10,66,50,35,23,22,18,56,32,10,30.30,30.21,30.12,12,12,12,5,1,,0.00,,,110
2012-12-11,60,48,37,27,23,19,56,34,15,30.15,30.11,30.04,12,12,12,2,0,,0.00,,,-1
2012-12-12,62,48,33,27,24,20,60,35,14,30.09,30.02,29.95,12,10,6,4,1,,0.00,1,,221
2012-12-13,61,47,33,27,23,19,60,37,12,30.09,30.03,29.98,12,11,6,2,1,,0.00,1,,254
2012-12-14,64,48,32,28,23,19,60,38,14,30.27,30.19,30.12,12,12,12,5,1,,0.00,,,-1
2012-12-15,66,51,36,27,23,19,52,32,12,30.42,30.34,30.30,12,12,12,6,1,,0.00,,,270
2012-12-16,71,53,35,25,22,19,48,27,9,30.48,30.38,30.33,12,12,12,5,1,,0.00,,,247
2012-12-17,69,52,36,24,21,19,52,29,9,30.42,30.33,30.24,12,12,12,6,2,,0.00,,,271
2012-12-18,68,52,35,25,21,18,49,29,9,30.36,30.30,30.24,12,12,12,6,1,,0.00,,,270
2012-12-19,70,51,32,23,19,16,64,28,8,30.36,30.29,30.15,12,12,12,4,1,,0.00,,,-1
2012-12-20,70,52,35,21,17,14,52,25,6,30.36,30.29,30.24,12,12,12,5,1,,0.00,,,251
2012-12-21,66,50,35,18,15,10,44,22,6,30.39,30.33,30.30,12,12,12,4,1,,0.00,,,290
2012-12-22,74,54,34,16,13,10,41,20,5,30.45,30.37,30.33,12,12,12,6,1,,0.00,,,270
2012-12-23,71,52,33,21,14,9,35,20,4,30.48,30.39,30.33,12,12,12,5,1,,0.00,,,270
2012-12-24,69,52,35,28,22,16,48,29,11,30.36,30.28,30.18,12,10,6,6,2,,0.00,1,,116
2012-12-25,67,52,37,32,27,23,60,36,12,30.21,30.15,30.06,12,9,6,8,1,,0.00,1,,249
2012-12-26,64,50,37,32,27,23,66,41,13,30.33,30.23,30.18,12,10,6,8,2,,0.00,1,,272
2012-12-27,61,49,37,30,26,21,60,39,15,30.45,30.38,30.33,12,12,12,5,3,,0.00,,,280
2012-12-28,64,48,32,27,17,5,65,32,4,30.54,30.45,30.39,12,12,12,7,2,,0.00,,,238
2012-12-29,64,46,28,7,3,-4,35,16,4,30.51,30.43,30.24,12,12,12,7,2,,0.00,,,268
2012-12-30,65,46,28,9,0,-8,30,14,4,30.48,30.40,30.33,12,12,12,5,1,,0.00,,,170
2012-12-31,61,44,28,19,5,0,37,18,5,30.42,30.32,30.21,12,12,12,5,1,,0.00,,,250